Regional Weather Roundup
Issued by NWS Kansas City/Pleasant Hill, MO

Home | Current Version | Previous Version | Graphics & Text | Print | Product List | Glossary Off
Versions: 1 2 3 4 5 6 7 8 9 10 11 12 13 14 15 16 17 18 19 20 21 22 23 24 25 26 27 28 29 30 31 32 33 34 35 36 37 38 39 40 41 42 43 44 45 46 47 48 49 50

578
ASUS43 KEAX 281810
RWREAX

WEATHER ROUNDUP FOR EASTERN KANSAS AND NORTHWEST MISSOURI
NATIONAL WEATHER SERVICE KANSAS CITY/PLEASANT HILL MO
100 PM CDT SAT MAY 28 2016

KSZ040-057-103>105-MOZ028-029-037-043-281900-
...KANSAS CITY METROPOLITAN AREA...

CITY           SKY/WX    TMP DP  RH WIND       PRES   REMARKS
K.C. INTL      PTSUNNY   72  62  71 W10       29.87R
6HR MIN TEMP:  61; 6HR MAX TEMP:  72;

K.C. DOWNTOWN  MOSUNNY   73  59  61 SW10      29.86S
6HR MIN TEMP:  62; 6HR MAX TEMP:  74;

LEES SUMMIT    PTSUNNY   71  60  68 SW12      29.89R
6HR MIN TEMP:  60; 6HR MAX TEMP:  72;

OLATHE - IXD   MOSUNNY   73  60  63 SW12      29.89S
6HR MIN TEMP:  61; 6HR MAX TEMP:  73;

OLATHE - OJC   PTSUNNY   72  60  66 W13       29.89R
6HR MIN TEMP:  59; 6HR MAX TEMP:  72;

LAWRENCE       PTSUNNY   73  60  63 W14       29.88R

$$

MOZ001>008-011>017-020>025-030>033-038>040-044>046-053-054-281900-
...NORTHERN AND CENTRAL MISSOURI...

CITY           SKY/WX    TMP DP  RH WIND       PRES   REMARKS
ST. JOSEPH     MOSUNNY   73  60  63 W15G21    29.85R
6HR MIN TEMP:  60; 6HR MAX TEMP:  73;

MOSBY          PTCLDY    72  59  64 SW13G20   29.87S
WARRENSBURG    PTSUNNY   73  63  68 SW13G18   29.89R
WHITEMAN AFB   MOSUNNY   75  65  69 SW18G24   29.88S
6HR MIN TEMP:  64; 6HR MAX TEMP:  76;

CLINTON        MOSUNNY   77  64  65 SW14      29.91S
SEDALIA        MOSUNNY   78  64  61 SW18G24   29.91R
6HR MIN TEMP:  66; 6HR MAX TEMP:  78;

WARSAW         NOT AVBL
CHILLICOTHE      N/A     75  63  66 SW12G18   29.86R
6HR MIN TEMP:  60; 6HR MAX TEMP:  75;

KIRKSVILLE     LGT RAIN  74  64  71 S14G22    29.87R
6HR MIN TEMP:  64; 6HR MAX TEMP:  76; 6HR PCP: TRACE;


$$

MOZ041-047>049-056>058-063>065-088>090-097-281900-
...EASTERN AND SOUTHERN MISSOURI...

CITY           SKY/WX    TMP DP  RH WIND       PRES   REMARKS
ST. LOUIS INTL PTSUNNY   83  65  54 S12       29.93F
6HR MIN TEMP:  69; 6HR MAX TEMP:  83;

SPIRIT OF STL  PTSUNNY   82  67  60 S9G16     29.91F
COLUMBIA       MOSUNNY   81  65  58 S20G26    29.89S
JEFFERSON CITY MOSUNNY   80  64  58 SW15G25   29.89S
ROLLA          MOSUNNY   78  67  68 SW9       29.93S
SPRINGFIELD    MOSUNNY   77  64  64 W13       29.95S
BRANSON        MOSUNNY   77  64  65 CALM      29.99R
JOPLIN         PTSUNNY   76  64  66 S13G22    29.95R
WEST PLAINS    SUNNY     78  64  61 S10       30.00R

$$

IAZ060-094-KSZ022-034>040-054-083-096-NEZ052-066-093-281900-
...KANSAS...SOUTHEAST NEBRASKA AND IOWA...

CITY           SKY/WX    TMP DP  RH WIND       PRES   REMARKS
TOPEKA         MOSUNNY   72  59  63 W13G18    29.88R
6HR MIN TEMP:  61; 6HR MAX TEMP:  72;

MANHATTAN      MOSUNNY   73  57  57 W10G20    29.89R
EMPORIA        MOSUNNY   73  58  59 W9        29.92R
CHANUTE        PTSUNNY   76  63  64 SW12      29.92S
WICHITA        MOSUNNY   76  58  53 W12       29.93R
OMAHA          PTSUNNY   71  57  61 W16       29.78S
LINCOLN        PTSUNNY   72  55  55 W18G26    29.83S
FALLS CITY     PTSUNNY   71  60  68 W17G24    29.84R
LAMONI         LGT RAIN  63  62  97 SW13      29.83R
DES MOINES     HVY RAIN  66  61  84 SW12      29.79S

$$





USA.gov is the U.S. government's official web portal to all federal, state and local government web resources and services.